User: anonymous   Login
Location: Unspecified
(43.4680°N, 87.1740°E)
Time: 03:26:21
(UTC+00:00)
Language:

Cosmos 2034 Rocket - Orbit

View from above orbital plane
View from above orbital plane
View from above satellite
View from above satellite

Ground track
Ground track

The orbit data is extracted from the following two-line orbital elements,

1 20150U 89059B   21169.34240073  .00000043  00000-0  28392-4 0  9996
2 20150  82.9411  89.4075 0029344 156.9520 323.8570 13.75660662601207
Epoch (UTC): 18 June 2021 08:13:03
Eccentricity: 0.0029344
inclination: 82.9411°
perigee height: 958 km
apogee height: 1001 km
right ascension of ascending node: 89.4075°
argument of perigee: 156.9520°
revolutions per day: 13.75660662
mean anomaly at epoch: 323.8570°
orbit number at epoch: 60120

The dashed part of the orbit path shows where the satellite is in the earth's shadow,  

DLR